[[{"header":{"parameterUnit":"m.s-1","parameterCategory":1,"la1":30.2991,"la2":30.254,"lo1":-89.0895,"lo2":-89.0444,"dy":0.0017,"dx":0.0017,"nx":28,"ny":28,"refTime":"2025-08-29T21:00:00:Z","depth":0,"parameterNumber":2,"parameterNumberName":"U-component_of_WINDS"},"data":[0,0,0,0,0,0,0,0,0,0,0,0,0,0,0,0,0,0,0,0,0,0,0,0,0,0,0,0,0,0,0,0,0,0,0,0,0,0,0,0,0,0,0,0,0,0,0,0,0,0,0,0,0,0,0,0,0,0,-3.6236,-3.6239,0,-3.6505,-3.6508,-3.6511,-3.6663,-3.6663,-3.6664,-3.6664,-3.6946,-3.6953,-3.696,0,0,0,0,0,0,0,0,0,0,0,0,0,-3.5854,-3.5861,-3.6236,-3.6239,-3.6242,-3.6505,-3.6509,-3.6512,-3.6663,-3.6663,-3.6664,-3.6665,-3.6944,-3.6952,-3.6961,0,0,0,0,0,0,0,0,0,0,0,0,0,-3.6061,-3.5863,-3.6235,-3.6349,-3.6362,-3.6504,-3.6509,-3.6513,-3.6663,-3.6663,-3.6664,-3.6665,-3.6941,-3.6952,-3.6962,-3.7013,0,0,-3.6994,-3.6999,0,0,0,0,0,0,0,0,-3.605,-3.6075,-3.6329,-3.6341,-3.6356,-3.6551,-3.6478,-3.6681,-3.6663,-3.6549,-3.6664,-3.6665,-3.6815,-3.6836,-3.6885,-3.7027,-3.7039,-3.6995,-3.7002,-3.7006,-3.7009,0,0,0,0,0,0,0,-3.6035,-3.6065,-3.6343,-3.6332,-3.6349,-3.6388,-3.6418,-3.6517,-3.6675,-3.6559,-3.657,-3.66,-3.6822,-3.6874,-3.6893,-3.7043,-3.6995,-3.7005,-3.7011,-3.7015,-3.7238,-3.7237,0,0,0,0,0,0,-3.6002,-3.6052,-3.6334,-3.6351,-3.6201,-3.6394,-3.6428,-3.6488,-3.6674,-3.6703,-3.6599,-3.6606,-3.6856,-3.688,-3.6903,-3.6974,-3.7006,-3.7016,-3.7022,-3.7238,-3.7238,-3.7237,0,0,0,0,0,0,-3.5993,-3.6026,-3.6323,-3.6204,-3.6245,-3.64,-3.6466,-3.6493,-3.6545,-3.6704,-3.6734,-3.6623,-3.6857,-3.6888,-3.6984,-3.6985,-3.7021,-3.7031,-3.7239,-3.7238,-3.7237,-3.7115,0,0,0,0,0,0,-3.5981,-3.6022,-3.6042,-3.6204,-3.6251,-3.6398,-3.6466,-3.6498,-3.6562,-3.6574,-3.6735,-3.6762,-3.686,-3.6967,-3.6994,-3.7001,-3.7039,-3.7239,-3.7239,-3.7238,-3.712,-3.711,-3.7102,0,0,0,0,0,-3.5967,-3.5999,-3.6042,-3.6076,-3.628,-3.6397,-3.6425,-3.6536,-3.6562,-3.6584,-3.6686,-3.6757,-3.6981,-3.6976,-3.7008,-3.7017,-3.724,-3.7239,-3.7238,-3.7123,-3.7112,-3.7102,0,0,0,0,0,0,-3.5836,-3.6022,-3.6073,-3.6157,-3.626,-3.6423,-3.6454,-3.652,-3.662,-3.6627,-3.6762,-3.6797,-3.6879,-3.6959,-3.6949,-3.7075,-3.7118,-3.7123,-3.702,-3.7011,-3.7002,-3.6981,-3.7048,0,0,0,0,0,-3.5817,-3.5895,-3.6055,-3.6114,-3.6163,-3.6298,-3.6355,-3.643,-3.6543,-3.6588,-3.6698,-3.6806,-3.6901,-3.6961,-3.7057,-3.7132,-3.7168,-3.7154,-3.7145,-3.7138,-3.714,-3.7183,-3.7178,-3.7234,-3.7234,-3.7234,0,0,-3.5778,-3.5889,-3.5932,-3.609,-3.6179,-3.6258,-3.6335,-3.6416,-3.6476,-3.6602,-3.6697,-3.6781,-3.6911,-3.6995,-3.7038,-3.7064,-3.7133,-3.7136,-3.7129,-3.7136,-3.7182,-3.7176,-3.7171,-3.7233,-3.7233,-3.7233,0,0,-3.5748,-3.584,-3.5898,-3.5984,-3.6116,-3.6206,-3.622,-3.6372,-3.6431,-3.6529,-3.6624,-3.6698,-3.6859,-3.6947,-3.7012,-3.7011,-3.7079,-3.7039,-3.6993,-3.7033,-3.7029,-3.7026,-3.7023,-3.702,-3.7041,-3.7041,-3.7041,0,-3.5683,-3.5805,-3.592,-3.5995,-3.6061,-3.6175,-3.6234,-3.6313,-3.6471,-3.6514,-3.654,-3.6742,-3.6838,-3.6943,-3.6942,-3.6992,-3.7011,-3.7021,-3.702,-3.7018,-3.7016,-3.7015,-3.7014,-3.7035,-3.7035,-3.7036,-3.7037,0,-3.5718,-3.58,-3.5832,-3.5977,-3.6047,-3.6114,-3.6239,-3.6296,-3.6365,-3.6452,-3.6549,-3.6668,-3.6788,-3.6819,-3.689,-3.6934,-3.6945,-3.6994,-3.7039,-3.7003,-3.7004,-3.7005,-3.7026,-3.7028,-3.703,-3.7032,0,0,-3.5614,-3.5819,-3.5829,-3.5894,-3.6047,-3.6114,-3.6185,-3.63,-3.6345,-3.645,-3.6512,-3.6644,-3.6688,-3.6763,-3.6844,-3.6879,-3.6867,-3.6924,-3.6929,-3.6907,-3.6921,-3.6881,-3.6879,-3.6913,-3.6914,-3.6914,-3.6909,0,-3.5604,-3.5735,-3.5839,-3.5931,-3.6007,-3.6116,-3.6178,-3.6278,-3.636,-3.6438,-3.6532,-3.6621,-3.6675,-3.6719,-3.676,-3.6859,-3.6871,-3.6862,-3.6973,-3.6975,-3.6934,-3.688,-3.684,-3.6828,-3.691,-3.691,-3.6911,0,-3.5611,-3.5706,-3.5804,-3.5945,-3.5982,-3.6035,-3.6147,-3.622,-3.6336,-3.6393,-3.6473,-3.6557,-3.6637,-3.6674,-3.6786,-3.6777,-3.6829,-3.6885,-3.6888,-3.6901,-3.6939,-3.689,-3.6828,-3.6825,-3.6913,-3.6913,-3.6913,0,-3.5521,-3.5676,-3.5753,-3.5807,-3.5974,-3.6008,-3.608,-3.6196,-3.6257,-3.6356,-3.6397,-3.6505,-3.6564,-3.6646,-3.6756,-3.6773,-3.6855,-3.6903,-3.6905,-3.6902,-3.6917,-3.6914,-3.686,-3.6953,-3.6953,-3.6953,-3.6953,0,-3.5498,-3.5553,-3.5715,-3.5762,-3.5827,-3.5946,-3.6008,-3.6089,-3.6191,-3.6256,-3.6358,-3.6418,-3.656,-3.6637,-3.6725,-3.6802,-3.6829,-3.6878,-3.69,-3.6868,-3.6861,-3.6902,-3.6905,-3.6953,-3.6953,-3.6953,-3.6953,0,-3.5409,-3.552,-3.5611,-3.576,-3.5799,-3.584,-3.5968,-3.6019,-3.6106,-3.6187,-3.6214,-3.6351,-3.6447,-3.6564,-3.67,-3.6758,-3.6826,-3.6861,-3.6785,-3.6798,-3.6792,-3.679,-3.6761,-3.6763,-3.6855,-3.6854,-3.6854,0,-3.5387,-3.5431,-3.5583,-3.5633,-3.57,-3.578,-3.5841,-3.5961,-3.6021,-3.6154,-3.6188,-3.629,-3.6378,-3.6526,-3.6639,-3.6742,-3.6779,-3.6762,-3.6796,-3.676,-3.6776,-3.6771,-3.6775,-3.6753,-3.6751,-3.675,-3.6749,0,-3.5333,-3.5384,-3.5468,-3.557,-3.564,-3.5727,-3.5818,-3.5853,-3.5992,-3.6054,-3.6151,-3.6219,-3.6354,-3.6454,-3.657,-3.6647,-3.672,-3.6737,-3.6743,-3.6709,-3.6662,-3.6684,-3.6759,-3.6737,-3.6738,-3.6739,-3.674,-3.674,-3.5276,-3.5318,-3.5431,-3.552,-3.56,-3.5682,-3.5735,-3.5827,-3.5909,-3.6025,-3.6092,-3.6186,-3.6299,-3.6462,-3.6535,-3.6611,-3.6638,-3.6647,-3.6649,-3.6648,-3.6637,-3.665,-3.6634,-3.6634,-3.6635,-3.6635,-3.6636,0,-3.5225,-3.5302,-3.5382,-3.5504,-3.5574,-3.5634,-3.5737,-3.5792,-3.5872,-3.597,-3.6053,-3.6163,-3.626,-3.6379,-3.6484,-3.6522,-3.6558,-3.6545,-3.6543,-3.6558,-3.6608,-3.6592,-3.6514,-3.6514,-3.6514,-3.6514,-3.6514,-3.6514,-3.5207,-3.5281,-3.5345,-3.5459,-3.5537,-3.5627,-3.568,-3.5756,-3.5834,-3.5951,-3.603,-3.6106,-3.6212,-3.6325,-3.6416,-3.6449,-3.6482,-3.6458,-3.6501,-3.6545,-3.6555,-3.6565,-3.655,-3.6465,-3.6465,-3.6444,-3.6444,-3.6444]},{"header":{"parameterUnit":"m.s-1","parameterCategory":1,"la1":30.2991,"la2":30.254,"lo1":-89.0895,"lo2":-89.0444,"dy":0.0017,"dx":0.0017,"nx":28,"ny":28,"refTime":"2025-08-29T21:00:00:Z","depth":0,"parameterNumber":3,"parameterNumberName":"V-component_of_WINDS"},"data":[0,0,0,0,0,0,0,0,0,0,0,0,0,0,0,0,0,0,0,0,0,0,0,0,0,0,0,0,0,0,0,0,0,0,0,0,0,0,0,0,0,0,0,0,0,0,0,0,0,0,0,0,0,0,0,0,0,0,-2.3143,-2.3141,0,-2.2972,-2.297,-2.2968,-2.2916,-2.2917,-2.2918,-2.2919,-2.2732,-2.2727,-2.2721,0,0,0,0,0,0,0,0,0,0,0,0,0,-2.341,-2.3406,-2.3143,-2.3141,-2.3139,-2.2972,-2.2969,-2.2967,-2.2916,-2.2917,-2.2918,-2.2919,-2.2734,-2.2727,-2.272,0,0,0,0,0,0,0,0,0,0,0,0,0,-2.3272,-2.3404,-2.3143,-2.3093,-2.3087,-2.2972,-2.2969,-2.2966,-2.2916,-2.2917,-2.2918,-2.2919,-2.2737,-2.2728,-2.272,-2.2639,0,0,-2.2693,-2.2689,0,0,0,0,0,0,0,0,-2.328,-2.3262,-2.3103,-2.3096,-2.3089,-2.2967,-2.2995,-2.2856,-2.2915,-2.298,-2.2919,-2.292,-2.2808,-2.2794,-2.2759,-2.263,-2.2622,-2.2692,-2.2687,-2.2683,-2.2681,0,0,0,0,0,0,0,-2.3289,-2.3269,-2.3075,-2.31,-2.3092,-2.3074,-2.3056,-2.2969,-2.2888,-2.2975,-2.2971,-2.2952,-2.2805,-2.2767,-2.2754,-2.262,-2.2692,-2.2685,-2.2679,-2.2676,-2.2408,-2.2406,0,0,0,0,0,0,-2.3309,-2.3277,-2.308,-2.307,-2.319,-2.3068,-2.3048,-2.3004,-2.2889,-2.2873,-2.2951,-2.295,-2.2781,-2.2764,-2.2747,-2.264,-2.2683,-2.2675,-2.267,-2.241,-2.2408,-2.2406,0,0,0,0,0,0,-2.3315,-2.3292,-2.3087,-2.3172,-2.3145,-2.3062,-2.3014,-2.3,-2.2963,-2.2871,-2.2856,-2.2928,-2.2782,-2.2759,-2.2665,-2.2633,-2.2671,-2.2663,-2.2412,-2.2409,-2.2407,-2.2429,0,0,0,0,0,0,-2.3323,-2.3295,-2.3267,-2.3172,-2.3141,-2.3013,-2.3012,-2.2996,-2.2949,-2.2946,-2.2846,-2.283,-2.2781,-2.2678,-2.2657,-2.2622,-2.2657,-2.2415,-2.2411,-2.2408,-2.243,-2.2427,-2.2424,0,0,0,0,0,-2.3333,-2.328,-2.3266,-2.3243,-2.3105,-2.3011,-2.2992,-2.294,-2.2947,-2.2915,-2.2856,-2.2833,-2.2641,-2.2669,-2.2644,-2.2606,-2.2416,-2.2412,-2.2408,-2.2432,-2.2428,-2.2424,0,0,0,0,0,0,-2.337,-2.3266,-2.325,-2.3166,-2.3098,-2.3003,-2.2962,-2.2939,-2.2865,-2.2865,-2.28,-2.2777,-2.2686,-2.2637,-2.2671,-2.2518,-2.2527,-2.2518,-2.2554,-2.2549,-2.2546,-2.2558,-2.2649,0,0,0,0,0,-2.3369,-2.3306,-2.3217,-2.315,-2.3117,-2.3046,-2.3003,-2.2968,-2.2894,-2.2864,-2.2798,-2.2723,-2.2644,-2.2595,-2.2518,-2.2424,-2.2397,-2.2384,-2.2381,-2.2379,-2.237,-2.2309,-2.2301,-2.2392,-2.2392,-2.2392,0,0,-2.3365,-2.3301,-2.3264,-2.3156,-2.31,-2.303,-2.3022,-2.295,-2.2896,-2.2852,-2.2759,-2.2707,-2.2618,-2.2522,-2.2476,-2.2478,-2.2339,-2.2373,-2.2373,-2.2365,-2.2304,-2.2295,-2.2288,-2.2389,-2.2389,-2.239,0,0,-2.3322,-2.3269,-2.3206,-2.3149,-2.3064,-2.3016,-2.3,-2.2907,-2.2872,-2.2778,-2.2742,-2.2674,-2.2543,-2.2479,-2.243,-2.2357,-2.233,-2.2333,-2.2315,-2.2257,-2.2249,-2.2243,-2.221,-2.2201,-2.2326,-2.2326,-2.2326,0,-2.3327,-2.3225,-2.3175,-2.3104,-2.3054,-2.3013,-2.2943,-2.289,-2.2783,-2.2746,-2.2751,-2.2581,-2.2519,-2.2404,-2.2386,-2.235,-2.2324,-2.2344,-2.2256,-2.2248,-2.2241,-2.2209,-2.2198,-2.2326,-2.2326,-2.2326,-2.2326,0,-2.3232,-2.3162,-2.3119,-2.3019,-2.2965,-2.2895,-2.2828,-2.2778,-2.2747,-2.2696,-2.2597,-2.252,-2.2425,-2.2395,-2.2364,-2.2273,-2.2276,-2.2269,-2.2276,-2.2234,-2.2202,-2.219,-2.2327,-2.2327,-2.2327,-2.2327,0,0,-2.3209,-2.308,-2.3065,-2.3016,-2.2917,-2.2858,-2.2783,-2.2693,-2.2648,-2.2574,-2.2505,-2.2393,-2.2383,-2.2327,-2.2288,-2.2237,-2.2175,-2.2234,-2.2231,-2.2221,-2.2063,-2.2066,-2.2054,-2.2159,-2.2156,-2.2154,-2.2068,0,-2.315,-2.302,-2.2969,-2.286,-2.279,-2.2747,-2.2681,-2.2609,-2.2559,-2.2488,-2.243,-2.2349,-2.2347,-2.2311,-2.2259,-2.2195,-2.2142,-2.22,-2.2087,-2.2084,-2.2108,-2.2038,-2.2043,-2.1966,-2.2056,-2.2054,-2.2053,0,-2.3065,-2.2992,-2.2876,-2.278,-2.2749,-2.2691,-2.26,-2.2535,-2.245,-2.2416,-2.2351,-2.2313,-2.2226,-2.224,-2.2115,-2.2156,-2.2106,-2.2066,-2.2062,-2.2046,-2.2064,-2.2016,-2.1941,-2.1927,-2.2035,-2.2036,-2.2037,0,-2.3054,-2.2926,-2.2839,-2.2799,-2.2686,-2.2645,-2.2595,-2.2512,-2.2459,-2.2377,-2.234,-2.2249,-2.2198,-2.2126,-2.2062,-2.2079,-2.194,-2.1951,-2.1903,-2.1905,-2.1874,-2.1876,-2.1785,-2.185,-2.185,-2.185,-2.185,0,-2.2991,-2.2921,-2.2832,-2.2778,-2.2695,-2.2635,-2.2552,-2.2499,-2.2424,-2.2354,-2.2311,-2.2245,-2.2167,-2.2088,-2.2037,-2.1937,-2.1916,-2.1881,-2.1868,-2.1883,-2.1886,-2.1847,-2.1848,-2.1847,-2.1848,-2.1848,-2.1849,0,-2.2965,-2.2904,-2.2804,-2.2705,-2.2678,-2.2621,-2.2532,-2.2475,-2.2421,-2.2332,-2.2308,-2.2221,-2.2127,-2.2056,-2.1934,-2.1898,-2.179,-2.1779,-2.1819,-2.1812,-2.1766,-2.177,-2.1643,-2.162,-2.1705,-2.1705,-2.1704,0,-2.2928,-2.2873,-2.2767,-2.2719,-2.267,-2.2592,-2.2537,-2.2473,-2.2416,-2.2311,-2.2264,-2.2167,-2.2086,-2.1935,-2.1858,-2.1761,-2.1744,-2.1706,-2.1729,-2.1743,-2.1736,-2.1738,-2.1729,-2.1702,-2.1701,-2.1701,-2.17,0,-2.2867,-2.2838,-2.2763,-2.2674,-2.261,-2.2536,-2.2461,-2.2422,-2.2343,-2.228,-2.2184,-2.2121,-2.1994,-2.1895,-2.179,-2.1732,-2.1699,-2.1694,-2.1676,-2.1689,-2.1713,-2.1693,-2.1805,-2.1696,-2.1697,-2.1697,-2.1697,-2.1697,-2.283,-2.2777,-2.2693,-2.2608,-2.2545,-2.2474,-2.2414,-2.2352,-2.2272,-2.2165,-2.2131,-2.2029,-2.1937,-2.1793,-2.1734,-2.1649,-2.1649,-2.1626,-2.1619,-2.1613,-2.1611,-2.173,-2.163,-2.163,-2.163,-2.163,-2.163,0,-2.2763,-2.2706,-2.2628,-2.2525,-2.2456,-2.2436,-2.235,-2.2291,-2.2204,-2.2123,-2.2043,-2.1928,-2.183,-2.1744,-2.1641,-2.1589,-2.157,-2.1563,-2.1564,-2.1549,-2.162,-2.1642,-2.1579,-2.1579,-2.1579,-2.1579,-2.1579,-2.1579,-2.2719,-2.2626,-2.2586,-2.2457,-2.2398,-2.2301,-2.2253,-2.2185,-2.2119,-2.1994,-2.1913,-2.1859,-2.1772,-2.1661,-2.1568,-2.1544,-2.1506,-2.1501,-2.1473,-2.154,-2.1545,-2.1551,-2.1572,-2.1494,-2.1494,-2.1408,-2.1408,-2.1407]}]]